Weather History for Orlando International, FL

Change the Weather History Date:

Sunday, February 23, 2014

  Actual Average Record
Temperature  
Mean Temperature 76 °F 64 °F  
Max Temperature 87 °F 75 °F 89 °F (2013)
Min Temperature 64 °F 53 °F 30 °F (1939)
Degree Days  
Heating Degree Days 0 3  
Month to date heating degree days 62 100  
Since 1 July heating degree days 353 484  
Cooling Degree Days 11 2  
Month to date cooling degree days 92 46  
Year to date cooling degree days 137 91  
Growing Degree Days 26 (Base 50)    
Moisture  
Dew Point 64 °F    
Average Humidity 72    
Maximum Humidity 100    
Minimum Humidity 44    
Precipitation  
Precipitation T in 0.09 in 2.32 in (1965)
Month to date precipitation 1.67 1.93  
Year to date precipitation 4.59 4.28  
Sea Level Pressure  
Sea Level Pressure 30.07 in    
Wind  
Wind Speed 6 mph (SW)    
Max Wind Speed 24 mph    
Max Gust Speed 28 mph    
Visibility 6 miles    
Events Fog    
T = Trace of Precipitation, MM = Missing Value Source: NWS Daily Summary

Daily Weather History Graph

Daily Weather History Graph

Search for Another Location

Airport:

Trip Planner

Search our weather history database for the weather conditions in past years. The results will help you decide how hot, cold, wet, or windy it might be!

Date:

Astronomy

Feb. 23, 2014 Rise Set
Actual Time 6:56 AM EST 6:21 PM EST
Civil Twilight 6:32 AM EST 6:45 PM EST
Nautical Twilight 6:04 AM EST 7:12 PM EST
Astronomical Twilight 5:37 AM EST 7:40 PM EST
Moon 1:39 AM EST (2/23) 12:37 PM EST (2/23)
Length of Visible Light 12h 12m
Length of Day
11h 25m
Last Quarter, 39% of the Moon is Illuminated
Feb 23
Last Quarter
Mar 1
New
Mar 8
First Quarter
Mar 16
Full
Mar 23
Last Quarter

Hourly Weather History & Observations

Time (EST) Temp. Heat Index Dew Point Humidity Pressure Visibility Wind Dir Wind Speed Gust Speed Precip Events Conditions
12:53 AM 64.9 °F - 61.0 °F 87% 30.09 in 10.0 mi Calm Calm - N/A   Overcast
1:29 AM 64.4 °F - 62.6 °F 94% 30.09 in 10.0 mi Calm Calm - N/A   Overcast
1:53 AM 66.0 °F - 62.1 °F 87% 30.08 in 10.0 mi Calm Calm - N/A   Overcast
2:53 AM 64.9 °F - 62.1 °F 90% 30.06 in 10.0 mi Calm Calm - N/A   Overcast
3:53 AM 66.0 °F - 63.0 °F 90% 30.06 in 9.0 mi Calm Calm - N/A   Overcast
4:53 AM 66.0 °F - 63.0 °F 90% 30.06 in 0.1 mi Calm Calm - N/A   Overcast
5:00 AM 66.2 °F - 62.6 °F 88% 30.07 in 0.1 mi SW 3.5 mph - N/A   Overcast
5:53 AM 64.9 °F - 64.0 °F 97% 30.07 in 0.1 mi South 3.5 mph - N/A Fog Fog
6:20 AM 64.4 °F - 64.4 °F 100% 30.08 in 0.1 mi SSW 4.6 mph - N/A Fog Fog
6:53 AM 66.0 °F - 64.0 °F 93% 30.08 in 0.1 mi Calm Calm - N/A Fog Fog
7:13 AM 66.2 °F - 64.4 °F 94% 30.08 in 0.1 mi SW 3.5 mph - N/A Fog Fog
7:32 AM 66.2 °F - 64.4 °F 94% 30.09 in 0.1 mi SSW 3.5 mph - N/A Fog Fog
7:53 AM 66.0 °F - 64.9 °F 96% 30.08 in 0.1 mi SW 3.5 mph - N/A Fog Fog
8:13 AM 66.2 °F - 64.4 °F 94% 30.09 in 0.1 mi Calm Calm - N/A Fog Fog
8:23 AM 66.2 °F - 64.4 °F 94% 30.09 in 0.1 mi SSW 3.5 mph - N/A   Overcast
8:39 AM 66.2 °F - 64.4 °F 94% 30.10 in 0.1 mi SSW 3.5 mph - N/A   Overcast
8:53 AM 66.9 °F - 64.9 °F 93% 30.09 in 0.1 mi SW 3.5 mph - N/A Fog Fog
9:46 AM 66.2 °F - 64.4 °F 94% 30.09 in 0.8 mi SSW 3.5 mph - N/A   Overcast
9:53 AM 68.0 °F - 66.0 °F 93% 30.09 in 0.8 mi SW 3.5 mph - N/A   Overcast
9:57 AM 68.0 °F - 66.2 °F 94% 30.10 in 2.5 mi WSW 4.6 mph - N/A   Overcast
10:14 AM 71.6 °F - 66.2 °F 83% 30.10 in 10.0 mi Calm Calm - N/A   Overcast
10:30 AM 73.4 °F - 66.2 °F 78% 30.09 in 10.0 mi Calm Calm - N/A   Mostly Cloudy
10:53 AM 73.9 °F - 66.0 °F 76% 30.09 in 10.0 mi WSW 3.5 mph - N/A   Mostly Cloudy
11:53 AM 79.0 °F - 66.9 °F 66% 30.08 in 10.0 mi WSW 4.6 mph - N/A   Scattered Clouds
12:53 PM 82.0 °F 84.1 °F 66.0 °F 58% 30.04 in 10.0 mi South 9.2 mph - N/A   Mostly Cloudy
1:53 PM 84.0 °F 85.8 °F 64.9 °F 53% 30.01 in 10.0 mi SW 6.9 mph - N/A   Mostly Cloudy
2:53 PM 86.0 °F 86.8 °F 63.0 °F 46% 29.99 in 10.0 mi South 11.5 mph 17.3 mph N/A   Mostly Cloudy
3:53 PM 84.9 °F 85.0 °F 61.0 °F 44% 29.98 in 10.0 mi SW 9.2 mph - N/A   Mostly Cloudy
4:53 PM 84.9 °F 84.8 °F 60.1 °F 43% 29.98 in 10.0 mi SW 11.5 mph - N/A   Mostly Cloudy
5:32 PM 73.4 °F - 62.6 °F 69% 30.02 in 10.0 mi North 20.7 mph - N/A   Mostly Cloudy
5:53 PM 72.0 °F - 63.0 °F 73% 30.04 in 10.0 mi North 15.0 mph - 0.00 in   Mostly Cloudy
6:53 PM 69.1 °F - 61.0 °F 75% 30.05 in 10.0 mi North 13.8 mph - N/A   Mostly Cloudy
7:53 PM 68.0 °F - 63.0 °F 84% 30.06 in 10.0 mi NNE 8.1 mph - N/A   Mostly Cloudy
8:17 PM 66.2 °F - 62.6 °F 88% 30.06 in 10.0 mi NNE 6.9 mph - N/A   Mostly Cloudy
8:53 PM 66.9 °F - 62.1 °F 84% 30.05 in 10.0 mi NE 10.4 mph - N/A   Mostly Cloudy
9:53 PM 66.0 °F - 62.1 °F 87% 30.06 in 10.0 mi NE 6.9 mph - N/A   Mostly Cloudy
10:00 PM 66.2 °F - 62.6 °F 88% 30.07 in 10.0 mi NNE 6.9 mph - N/A   Mostly Cloudy
10:53 PM 64.9 °F - 62.1 °F 90% 30.07 in 10.0 mi NE 4.6 mph - N/A   Mostly Cloudy
11:53 PM 64.9 °F - 62.1 °F 90% 30.06 in 10.0 mi ESE 3.5 mph - N/A   Mostly Cloudy